| time (UTC) | temp F | wind direction | speed MPH | gust MPH | rain 1hr in | rain 24hr in | rain mn in | humidity % | barometer mb |
| 20260506133924 | 47 | 337 | 3.0 | 8.0 | 0.00 | 0.03 | 0.00 | 65 | 1013.2 |
| 20260506133417 | 46 | 79 | 4.0 | 9.0 | 0.00 | 0.03 | 0.00 | 65 | 1013.2 |
| 20260506132912 | 46 | 9 | 4.0 | 10.0 | 0.00 | 0.03 | 0.00 | 64 | 1013.1 |
| 20260506132406 | 46 | 293 | 4.0 | 10.0 | 0.00 | 0.03 | 0.00 | 66 | 1013.0 |
| 20260506131900 | 46 | 29 | 4.0 | 12.0 | 0.00 | 0.03 | 0.00 | 66 | 1013.0 |
| 20260506131355 | 46 | 54 | 4.0 | 12.0 | 0.00 | 0.03 | 0.00 | 66 | 1012.9 |
| 20260506130855 | 46 | 35 | 3.0 | 12.0 | 0.00 | 0.03 | 0.00 | 65 | 1012.9 |
| 20260506130356 | 46 | 311 | 2.0 | 6.0 | 0.00 | 0.03 | 0.00 | 67 | 1012.8 |
| 20260506125857 | 46 | 317 | 3.0 | 9.0 | 0.00 | 0.03 | 0.00 | 66 | 1012.5 |
| 20260506125625 | 45 | 14 | 4.0 | 9.0 | 0.00 | 0.03 | 0.00 | 66 | 1012.4 |
| 20260506124853 | 45 | 34 | 3.0 | 9.0 | 0.00 | 0.03 | 0.00 | 66 | 1012.3 |
| 20260506124358 | 45 | 356 | 3.0 | 8.0 | 0.00 | 0.03 | 0.00 | 66 | 1012.3 |
| 20260506124354 | 45 | 23 | 4.0 | 8.0 | 0.00 | 0.03 | 0.00 | 66 | 1012.3 |
| 20260506123623 | 45 | 50 | 2.0 | 6.0 | 0.00 | 0.03 | 0.00 | 67 | 1012.3 |
| 20260506122853 | 45 | 51 | 2.0 | 8.0 | 0.00 | 0.03 | 0.00 | 67 | 1012.1 |
| 20260506122351 | 45 | 21 | 3.0 | 8.0 | 0.00 | 0.03 | 0.00 | 66 | 1012.1 |
| 20260506121850 | 45 | 323 | 3.0 | 7.0 | 0.00 | 0.03 | 0.00 | 65 | 1012.2 |
| 20260506121352 | 45 | 58 | 2.0 | 7.0 | 0.00 | 0.03 | 0.00 | 66 | 1012.4 |
| 20260506120859 | 45 | 42 | 1.0 | 5.0 | 0.00 | 0.03 | 0.00 | 65 | 1011.9 |
| 20260506120851 | 45 | 356 | 1.0 | 6.0 | 0.00 | 0.03 | 0.00 | 65 | 1012.3 |
| 20260506120122 | 45 | 25 | 1.0 | 5.0 | 0.00 | 0.03 | 0.00 | 65 | 1011.9 |
| 20260506115355 | 45 | 37 | 2.0 | 7.0 | 0.00 | 0.03 | 0.00 | 65 | 1011.6 |
| 20260506115351 | 45 | 27 | 1.0 | 7.0 | 0.00 | 0.03 | 0.00 | 66 | 1011.7 |
| 20260506114352 | 45 | 328 | 2.0 | 7.0 | 0.00 | 0.03 | 0.00 | 65 | 1011.5 |
| 20260506113852 | 45 | 9 | 2.0 | 6.0 | 0.00 | 0.03 | 0.00 | 65 | 1011.7 |
| 20260506113350 | 45 | 20 | 1.0 | 6.0 | 0.00 | 0.03 | 0.00 | 66 | 1011.5 |
| 20260506112850 | 45 | 300 | 1.0 | 3.0 | 0.00 | 0.03 | 0.00 | 67 | 1011.4 |
| 20260506112622 | 45 | 311 | 1.0 | 3.0 | 0.00 | 0.03 | 0.00 | 67 | 1011.4 |
| 20260506111851 | 45 | 13 | 1.0 | 4.0 | 0.00 | 0.03 | 0.00 | 67 | 1011.4 |
| 20260506111350 | 45 | 11 | 1.0 | 4.0 | 0.00 | 0.03 | 0.00 | 68 | 1011.3 |
| 20260506110852 | 45 | 332 | 1.0 | 4.0 | 0.00 | 0.03 | 0.00 | 67 | 1011.3 |
| 20260506110350 | 45 | 340 | 1.0 | 4.0 | 0.00 | 0.03 | 0.00 | 67 | 1011.2 |
| 20260506110120 | 45 | 345 | 1.0 | 4.0 | 0.00 | 0.03 | 0.00 | 67 | 1011.1 |
| 20260506105349 | 45 | 338 | 1.0 | 4.0 | 0.00 | 0.03 | 0.00 | 68 | 1011.1 |
| 20260506104849 | 45 | 39 | 2.0 | 4.0 | 0.00 | 0.03 | 0.00 | 68 | 1010.7 |
| 20260506104620 | 45 | 36 | 2.0 | 6.0 | 0.00 | 0.03 | 0.00 | 69 | 1010.7 |
| 20260506103849 | 46 | 51 | 2.0 | 6.0 | 0.00 | 0.03 | 0.00 | 69 | 1010.6 |
| 20260506103349 | 46 | 347 | 1.0 | 6.0 | 0.00 | 0.03 | 0.00 | 70 | 1010.7 |
| 20260506102850 | 46 | 1 | 1.0 | 5.0 | 0.00 | 0.03 | 0.00 | 70 | 1010.5 |
| 20260506102348 | 46 | 359 | 1.0 | 5.0 | 0.00 | 0.03 | 0.00 | 70 | 1010.2 |
| 20260506101849 | 46 | 355 | 1.0 | 4.0 | 0.00 | 0.03 | 0.00 | 70 | 1010.4 |
| 20260506101620 | 46 | 35 | 1.0 | 4.0 | 0.00 | 0.03 | 0.00 | 70 | 1010.1 |
| 20260506100849 | 46 | 54 | 2.0 | 7.0 | 0.00 | 0.03 | 0.00 | 70 | 1010.2 |
| 20260506100349 | 46 | 18 | 2.0 | 7.0 | 0.00 | 0.03 | 0.00 | 69 | 1010.2 |
| 20260506095850 | 46 | 352 | 2.0 | 8.0 | 0.00 | 0.03 | 0.00 | 70 | 1010.2 |
| 20260506095350 | 46 | 54 | 2.0 | 8.0 | 0.00 | 0.03 | 0.00 | 70 | 1010.1 |
| 20260506094848 | 47 | 30 | 2.0 | 7.0 | 0.00 | 0.03 | 0.00 | 70 | 1009.9 |
| 20260506094350 | 47 | 44 | 1.0 | 5.0 | 0.00 | 0.03 | 0.00 | 69 | 1009.9 |
| 20260506093851 | 47 | 59 | 2.0 | 5.0 | 0.00 | 0.03 | 0.00 | 69 | 1010.1 |
| 20260506093351 | 47 | 351 | 2.0 | 6.0 | 0.00 | 0.03 | 0.00 | 69 | 1010.1 |
| 20260506092852 | 47 | 48 | 1.0 | 6.0 | 0.00 | 0.03 | 0.00 | 68 | 1010.1 |
| 20260506092353 | 48 | 68 | 1.0 | 6.0 | 0.00 | 0.03 | 0.00 | 67 | 1010.0 |
| 20260506091846 | 48 | 9 | 2.0 | 6.0 | 0.00 | 0.03 | 0.00 | 66 | 1009.7 |
| 20260506091602 | 49 | 9 | 3.0 | 8.0 | 0.00 | 0.03 | 0.00 | 65 | 1009.7 |
| 20260506090811 | 49 | 39 | 3.0 | 8.0 | 0.00 | 0.03 | 0.00 | 62 | 1009.7 |
| 20260506090304 | 49 | 354 | 1.0 | 7.0 | 0.00 | 0.03 | 0.00 | 61 | 1009.7 |
| 20260506085805 | 49 | 43 | 2.0 | 5.0 | 0.00 | 0.03 | 0.00 | 60 | 1009.6 |
| 20260506085306 | 49 | 347 | 2.0 | 5.0 | 0.00 | 0.03 | 0.00 | 60 | 1009.8 |
| 20260506084804 | 49 | 297 | 1.0 | 5.0 | 0.00 | 0.03 | 0.00 | 60 | 1009.8 |
| 20260506084304 | 49 | 37 | 1.0 | 4.0 | 0.00 | 0.03 | 0.00 | 59 | 1009.6 |
| 20260506083804 | 49 | 33 | 1.0 | 4.0 | 0.00 | 0.03 | 0.00 | 59 | 1009.4 |
| 20260506083535 | 49 | 358 | 0.0 | 4.0 | 0.00 | 0.03 | 0.00 | 59 | 1009.5 |
| 20260506082805 | 49 | 319 | 1.0 | 4.0 | 0.00 | 0.03 | 0.00 | 59 | 1009.5 |
| 20260506082301 | 49 | 330 | 1.0 | 3.0 | 0.00 | 0.03 | 0.00 | 59 | 1009.4 |
| 20260506081800 | 50 | 309 | 1.0 | 5.0 | 0.00 | 0.03 | 0.00 | 58 | 1009.5 |
| 20260506081301 | 50 | 304 | 1.0 | 5.0 | 0.00 | 0.03 | 0.00 | 58 | 1009.6 |
| 20260506080800 | 50 | 286 | 1.0 | 4.0 | 0.00 | 0.03 | 0.00 | 57 | 1009.6 |
| 20260506080300 | 50 | 295 | 1.0 | 4.0 | 0.00 | 0.03 | 0.00 | 57 | 1009.6 |
| 20260506073241 | 50 | 325 | 1.0 | 4.0 | 0.00 | 0.03 | 0.00 | 57 | 1009.4 |
| 20260506073012 | 50 | 130 | 2.0 | 6.0 | 0.00 | 0.03 | 0.00 | 58 | 1009.4 |
| 20260506072241 | 50 | 313 | 2.0 | 6.0 | 0.00 | 0.03 | 0.00 | 57 | 1009.4 |
| 20260506071742 | 50 | 318 | 1.0 | 4.0 | 0.00 | 0.03 | 0.00 | 57 | 1009.4 |
| 20260506071238 | 50 | 304 | 0.0 | 4.0 | 0.00 | 0.03 | 0.00 | 58 | 1009.7 |
| 20260506070740 | 51 | 275 | 0.0 | 2.0 | 0.00 | 0.03 | 0.00 | 58 | 1009.5 |
| 20260506070236 | 51 | 276 | 1.0 | 2.0 | 0.00 | 0.03 | 0.00 | 58 | 1009.5 |
| 20260506062224 | 51 | 297 | 1.0 | 4.0 | 0.00 | 0.03 | 0.00 | 56 | 1009.7 |
| 20260506061719 | 51 | 259 | 1.0 | 4.0 | 0.00 | 0.03 | 0.00 | 56 | 1009.9 |
| 20260506061213 | 51 | 271 | 1.0 | 4.0 | 0.00 | 0.03 | 0.00 | 56 | 1009.8 |
| 20260506060707 | 51 | 270 | 1.0 | 5.0 | 0.00 | 0.03 | 0.00 | 55 | 1009.7 |
| 20260506060200 | 51 | 247 | 1.0 | 5.0 | 0.00 | 0.03 | 0.00 | 55 | 1009.7 |
| 20260506051102 | 52 | 245 | 1.0 | 5.0 | 0.00 | 0.04 | 0.00 | 54 | 1009.8 |
| 20260506050602 | 52 | 220 | 1.0 | 5.0 | 0.00 | 0.06 | 0.00 | 54 | 1009.8 |
| 20260506050103 | 52 | 271 | 1.0 | 4.0 | 0.00 | 0.08 | 0.00 | 54 | 1009.8 |
| 20260506045058 | 52 | 271 | 1.0 | 4.0 | 0.00 | 0.08 | 0.00 | 53 | 1009.7 |
| 20260506044558 | 52 | 256 | 1.0 | 4.0 | 0.00 | 0.08 | 0.00 | 53 | 1009.8 |
| 20260506044058 | 52 | 239 | 1.0 | 3.0 | 0.00 | 0.08 | 0.00 | 53 | 1009.8 |
| 20260506043559 | 52 | 210 | 1.0 | 5.0 | 0.00 | 0.08 | 0.00 | 53 | 1009.6 |
| 20260506043057 | 52 | 269 | 1.0 | 5.0 | 0.00 | 0.08 | 0.00 | 52 | 1009.6 |
| 20260506042556 | 52 | 250 | 0.0 | 4.0 | 0.00 | 0.08 | 0.00 | 53 | 1009.6 |
| 20260506042326 | 52 | 273 | 0.0 | 1.0 | 0.00 | 0.08 | 0.00 | 53 | 1009.4 |
| 20260506041555 | 52 | 274 | 0.0 | 3.0 | 0.00 | 0.08 | 0.00 | 52 | 1009.5 |
| 20260506041054 | 52 | 244 | 1.0 | 3.0 | 0.00 | 0.08 | 0.00 | 52 | 1009.4 |
| 20260506040555 | 52 | 297 | 0.0 | 3.0 | 0.00 | 0.08 | 0.00 | 52 | 1009.5 |
| 20260506040056 | 52 | 306 | 0.0 | 1.0 | 0.00 | 0.08 | 0.00 | 52 | 1009.6 |
| 20260506035553 | 52 | 286 | 0.0 | 1.0 | 0.00 | 0.08 | 0.08 | 52 | 1009.6 |
| 20260506035053 | 52 | 264 | 0.0 | 3.0 | 0.00 | 0.08 | 0.08 | 52 | 1009.7 |
| 20260506034552 | 52 | 274 | 1.0 | 3.0 | 0.00 | 0.08 | 0.08 | 51 | 1009.7 |
| 20260506034053 | 53 | 274 | 0.0 | 3.0 | 0.00 | 0.08 | 0.08 | 51 | 1009.8 |
| 20260506033549 | 53 | 245 | 0.0 | 2.0 | 0.00 | 0.08 | 0.08 | 51 | 1009.8 |
| 20260506033049 | 53 | 240 | 0.0 | 2.0 | 0.00 | 0.08 | 0.08 | 51 | 1009.9 |
| 20260506032550 | 53 | 241 | 1.0 | 3.0 | 0.00 | 0.08 | 0.08 | 51 | 1010.0 |
| 20260506032049 | 53 | 252 | 1.0 | 4.0 | 0.00 | 0.08 | 0.08 | 51 | 1009.9 |
| 20260506031820 | 53 | 226 | 2.0 | 4.0 | 0.00 | 0.08 | 0.08 | 50 | 1009.8 |
| 20260506031049 | 53 | 283 | 2.0 | 6.0 | 0.00 | 0.08 | 0.08 | 50 | 1009.7 |
| 20260506030547 | 53 | 249 | 2.0 | 6.0 | 0.00 | 0.08 | 0.08 | 49 | 1009.7 |
| 20260506030320 | 53 | 252 | 1.0 | 5.0 | 0.00 | 0.08 | 0.08 | 49 | 1009.8 |
| 20260506025547 | 53 | 236 | 1.0 | 5.0 | 0.00 | 0.08 | 0.08 | 50 | 1009.9 |
| 20260506025319 | 53 | 222 | 1.0 | 3.0 | 0.00 | 0.08 | 0.08 | 50 | 1009.9 |
| 20260506024548 | 53 | 258 | 0.0 | 2.0 | 0.00 | 0.08 | 0.08 | 50 | 1009.8 |
| 20260506024048 | 53 | 290 | 1.0 | 7.0 | 0.00 | 0.08 | 0.08 | 50 | 1009.8 |
| 20260506023551 | 53 | 323 | 2.0 | 7.0 | 0.00 | 0.08 | 0.08 | 49 | 1009.8 |
| 20260506023050 | 53 | 262 | 1.0 | 5.0 | 0.00 | 0.08 | 0.08 | 49 | 1009.8 |
| 20260506022551 | 53 | 259 | 2.0 | 7.0 | 0.00 | 0.08 | 0.08 | 49 | 1009.9 |
| 20260506022046 | 54 | 240 | 2.0 | 6.0 | 0.00 | 0.08 | 0.08 | 49 | 1009.9 |
| 20260506021530 | 54 | 265 | 1.0 | 6.0 | 0.00 | 0.08 | 0.08 | 49 | 1009.8 |
| 20260506021034 | 54 | 234 | 1.0 | 4.0 | 0.00 | 0.08 | 0.08 | 51 | 1009.8 |
| 20260506020530 | 54 | 233 | 1.0 | 5.0 | 0.00 | 0.08 | 0.08 | 50 | 1009.8 |
| 20260506020028 | 54 | 239 | 1.0 | 6.0 | 0.00 | 0.08 | 0.08 | 50 | 1009.7 |
| 20260506015528 | 54 | 269 | 2.0 | 6.0 | 0.00 | 0.08 | 0.08 | 50 | 1009.7 |
| 20260506015027 | 54 | 243 | 2.0 | 6.0 | 0.00 | 0.08 | 0.08 | 50 | 1009.6 |
| 20260506014527 | 54 | 278 | 2.0 | 5.0 | 0.00 | 0.08 | 0.08 | 51 | 1009.6 |
| 20260506014026 | 54 | 276 | 2.0 | 5.0 | 0.00 | 0.09 | 0.08 | 53 | 1009.5 |
| 20260506013525 | 54 | 229 | 2.0 | 4.0 | 0.00 | 0.09 | 0.08 | 54 | 1009.5 |
| 20260506013259 | 54 | 239 | 1.0 | 4.0 | 0.00 | 0.09 | 0.08 | 53 | 1009.4 |
| 20260506012525 | 54 | 250 | 1.0 | 3.0 | 0.00 | 0.09 | 0.08 | 53 | 1009.2 |
| 20260506012027 | 54 | 297 | 1.0 | 7.0 | 0.00 | 0.09 | 0.08 | 54 | 1009.4 |
| 20260506011524 | 54 | 291 | 1.0 | 7.0 | 0.00 | 0.09 | 0.08 | 54 | 1009.3 |
| 20260506011024 | 54 | 267 | 1.0 | 5.0 | 0.00 | 0.09 | 0.08 | 53 | 1009.3 |
| 20260506010531 | 54 | 258 | 1.0 | 5.0 | 0.00 | 0.09 | 0.08 | 54 | 1009.2 |
| 20260506010523 | 54 | 276 | 1.0 | 4.0 | 0.00 | 0.09 | 0.08 | 54 | 1009.4 |
| 20260506005523 | 55 | 252 | 2.0 | 5.0 | 0.00 | 0.09 | 0.08 | 53 | 1009.4 |
| 20260506005024 | 55 | 256 | 2.0 | 8.0 | 0.00 | 0.09 | 0.08 | 53 | 1009.3 |
| 20260506004525 | 55 | 304 | 2.0 | 8.0 | 0.00 | 0.09 | 0.08 | 54 | 1009.3 |
| 20260506004027 | 55 | 232 | 2.0 | 6.0 | 0.00 | 0.09 | 0.08 | 54 | 1009.3 |
| 20260506003526 | 55 | 287 | 2.0 | 6.0 | 0.00 | 0.09 | 0.08 | 54 | 1009.4 |
| 20260506003027 | 55 | 283 | 2.0 | 9.0 | 0.00 | 0.09 | 0.08 | 54 | 1009.3 |
| 20260506002527 | 55 | 238 | 2.0 | 9.0 | 0.00 | 0.09 | 0.08 | 54 | 1009.3 |
| 20260506002024 | 55 | 218 | 2.0 | 6.0 | 0.00 | 0.09 | 0.08 | 55 | 1009.2 |
| 20260506001523 | 55 | 243 | 2.0 | 6.0 | 0.00 | 0.09 | 0.08 | 54 | 1009.2 |
| 20260506001024 | 55 | 249 | 2.0 | 6.0 | 0.00 | 0.09 | 0.08 | 55 | 1009.1 |
| 20260506000523 | 55 | 293 | 2.0 | 6.0 | 0.00 | 0.09 | 0.08 | 55 | 1008.9 |
| 20260506000023 | 55 | 287 | 2.0 | 7.0 | 0.00 | 0.09 | 0.08 | 56 | 1008.7 |
| 20260505235529 | 55 | 245 | 3.0 | 8.0 | 0.00 | 0.11 | 0.08 | 57 | 1008.6 |
| 20260505235524 | 55 | 278 | 2.0 | 7.0 | 0.00 | 0.10 | 0.08 | 56 | 1008.7 |
| 20260505234525 | 55 | 307 | 3.0 | 8.0 | 0.00 | 0.11 | 0.08 | 57 | 1008.6 |
| 20260505234025 | 55 | 302 | 3.0 | 8.0 | 0.00 | 0.11 | 0.08 | 58 | 1008.6 |
| 20260505233523 | 56 | 311 | 3.0 | 8.0 | 0.00 | 0.11 | 0.08 | 60 | 1008.5 |
| 20260505233024 | 56 | 264 | 3.0 | 7.0 | 0.00 | 0.11 | 0.08 | 62 | 1008.5 |
| 20260505232523 | 56 | 236 | 3.0 | 7.0 | 0.00 | 0.11 | 0.08 | 62 | 1008.4 |
| 20260505232023 | 56 | 274 | 2.0 | 6.0 | 0.00 | 0.11 | 0.08 | 64 | 1008.5 |
| 20260505231524 | 56 | 251 | 1.0 | 6.0 | 0.00 | 0.11 | 0.08 | 65 | 1008.5 |
| 20260505231023 | 56 | 235 | 1.0 | 4.0 | 0.00 | 0.11 | 0.08 | 66 | 1008.5 |
| 20260505230754 | 56 | 255 | 1.0 | 3.0 | 0.00 | 0.11 | 0.08 | 66 | 1008.6 |
| 20260505230023 | 56 | 255 | 2.0 | 7.0 | 0.00 | 0.11 | 0.08 | 66 | 1008.5 |
| 20260505225523 | 56 | 288 | 2.0 | 7.0 | 0.00 | 0.11 | 0.08 | 66 | 1008.6 |
| 20260505225023 | 56 | 314 | 2.0 | 6.0 | 0.00 | 0.11 | 0.08 | 66 | 1008.6 |
| 20260505224525 | 56 | 266 | 2.0 | 6.0 | 0.00 | 0.11 | 0.08 | 66 | 1008.7 |
| 20260505224017 | 56 | 303 | 3.0 | 7.0 | 0.00 | 0.11 | 0.08 | 65 | 1008.8 |
| 20260505223522 | 56 | 309 | 2.0 | 8.0 | 0.00 | 0.11 | 0.08 | 66 | 1008.8 |
| 20260505223517 | 56 | 235 | 2.0 | 7.0 | 0.00 | 0.11 | 0.08 | 66 | 1008.8 |
| 20260505222518 | 56 | 258 | 3.0 | 10.0 | 0.00 | 0.11 | 0.08 | 65 | 1008.8 |
| 20260505222250 | 56 | 281 | 2.0 | 10.0 | 0.00 | 0.11 | 0.08 | 66 | 1008.8 |
| 20260505221516 | 56 | 269 | 2.0 | 8.0 | 0.00 | 0.11 | 0.08 | 67 | 1008.7 |
| 20260505221013 | 56 | 298 | 4.0 | 9.0 | 0.00 | 0.11 | 0.08 | 66 | 1008.7 |
| 20260505220514 | 56 | 305 | 4.0 | 11.0 | 0.00 | 0.11 | 0.08 | 66 | 1008.8 |
| 20260505220013 | 56 | 268 | 5.0 | 13.0 | 0.00 | 0.11 | 0.08 | 66 | 1008.8 |
| 20260505215511 | 56 | 236 | 4.0 | 13.0 | 0.00 | 0.11 | 0.08 | 66 | 1008.8 |
| 20260505215011 | 56 | 276 | 3.0 | 10.0 | 0.00 | 0.11 | 0.08 | 66 | 1008.8 |
| 20260505214510 | 56 | 293 | 4.0 | 12.0 | 0.00 | 0.11 | 0.08 | 67 | 1008.9 |
| 20260505214009 | 56 | 288 | 4.0 | 12.0 | 0.00 | 0.11 | 0.08 | 67 | 1008.8 |
| 20260505213742 | 56 | 293 | 3.0 | 7.0 | 0.00 | 0.11 | 0.08 | 67 | 1008.7 |
| 20260505213238 | 56 | 301 | 3.0 | 7.0 | 0.00 | 0.11 | 0.08 | 66 | 1008.6 |
| 20260505213115 | 56 | 240 | 3.0 | 7.0 | 0.00 | 0.11 | 0.08 | 66 | 1008.6 |
| 20260505212003 | 56 | 287 | 3.0 | 8.0 | 0.00 | 0.11 | 0.08 | 66 | 1008.5 |
| 20260505211504 | 56 | 259 | 3.0 | 8.0 | 0.00 | 0.11 | 0.08 | 67 | 1008.4 |
| 20260505211005 | 56 | 309 | 4.0 | 9.0 | 0.00 | 0.11 | 0.08 | 67 | 1008.5 |
| 20260505210504 | 56 | 240 | 3.0 | 10.0 | 0.00 | 0.11 | 0.08 | 67 | 1008.5 |
| 20260505210001 | 56 | 281 | 3.0 | 10.0 | 0.00 | 0.11 | 0.08 | 68 | 1008.6 |
| 20260505205503 | 56 | 243 | 3.0 | 11.0 | 0.00 | 0.11 | 0.08 | 67 | 1008.7 |
| 20260505205002 | 56 | 230 | 2.0 | 11.0 | 0.00 | 0.11 | 0.08 | 67 | 1008.8 |
| 20260505204503 | 56 | 276 | 3.0 | 8.0 | 0.00 | 0.11 | 0.08 | 68 | 1008.8 |
| 20260505204001 | 56 | 242 | 4.0 | 8.0 | 0.00 | 0.11 | 0.08 | 68 | 1008.9 |
| 20260505203500 | 56 | 271 | 3.0 | 8.0 | 0.00 | 0.11 | 0.08 | 68 | 1008.8 |
| 20260505202959 | 56 | 275 | 3.0 | 10.0 | 0.00 | 0.11 | 0.08 | 67 | 1008.7 |
| 20260505202459 | 55 | 271 | 4.0 | 10.0 | 0.00 | 0.11 | 0.08 | 68 | 1009.0 |
| 20260505202232 | 55 | 270 | 3.0 | 10.0 | 0.00 | 0.11 | 0.08 | 68 | 1008.9 |
| 20260505201730 | 55 | 213 | 3.0 | 8.0 | 0.00 | 0.11 | 0.08 | 68 | 1008.9 |
| 20260505200954 | 55 | 273 | 3.0 | 8.0 | 0.00 | 0.11 | 0.08 | 68 | 1008.9 |
| 20260505200448 | 55 | 240 | 3.0 | 8.0 | 0.00 | 0.11 | 0.08 | 69 | 1009.0 |
| 20260505195946 | 55 | 231 | 3.0 | 10.0 | 0.00 | 0.11 | 0.08 | 69 | 1008.9 |
| 20260505195942 | 55 | 242 | 3.0 | 10.0 | 0.00 | 0.11 | 0.08 | 68 | 1008.8 |
| 20260505195210 | 55 | 268 | 3.0 | 8.0 | 0.00 | 0.11 | 0.08 | 68 | 1009.0 |
| 20260505194440 | 55 | 295 | 3.0 | 8.0 | 0.00 | 0.11 | 0.08 | 68 | 1009.1 |
| 20260505193940 | 55 | 253 | 4.0 | 8.0 | 0.00 | 0.11 | 0.08 | 68 | 1009.1 |
| 20260505193439 | 55 | 231 | 3.0 | 10.0 | 0.00 | 0.11 | 0.08 | 68 | 1009.1 |
| 20260505192939 | 55 | 264 | 3.0 | 11.0 | 0.00 | 0.11 | 0.08 | 69 | 1009.1 |
| 20260505192440 | 55 | 275 | 3.0 | 15.0 | 0.00 | 0.11 | 0.08 | 69 | 1009.1 |
| 20260505191941 | 55 | 232 | 2.0 | 15.0 | 0.00 | 0.11 | 0.08 | 69 | 1009.1 |
| 20260505191440 | 55 | 272 | 3.0 | 11.0 | 0.00 | 0.11 | 0.08 | 70 | 1009.2 |
| 20260505190944 | 55 | 252 | 3.0 | 8.0 | 0.00 | 0.11 | 0.08 | 70 | 1009.2 |
| 20260505190940 | 55 | 242 | 3.0 | 11.0 | 0.00 | 0.11 | 0.08 | 70 | 1009.2 |
| 20260505185937 | 55 | 261 | 4.0 | 10.0 | 0.00 | 0.11 | 0.08 | 69 | 1009.2 |
| 20260505185708 | 54 | 239 | 4.0 | 11.0 | 0.00 | 0.11 | 0.08 | 69 | 1009.1 |
| 20260505184937 | 55 | 282 | 4.0 | 12.0 | 0.00 | 0.11 | 0.08 | 69 | 1009.0 |
| 20260505184439 | 55 | 245 | 4.0 | 12.0 | 0.00 | 0.11 | 0.08 | 70 | 1008.9 |
| 20260505183938 | 55 | 221 | 5.0 | 12.0 | 0.00 | 0.11 | 0.08 | 70 | 1008.9 |
| 20260505183431 | 54 | 236 | 5.0 | 12.0 | 0.01 | 0.11 | 0.08 | 69 | 1008.7 |
| 20260505182925 | 54 | 242 | 4.0 | 12.0 | 0.01 | 0.11 | 0.08 | 69 | 1008.7 |
| 20260505182420 | 54 | 247 | 4.0 | 11.0 | 0.01 | 0.11 | 0.08 | 71 | 1008.6 |
| 20260505181914 | 54 | 221 | 3.0 | 10.0 | 0.01 | 0.11 | 0.08 | 72 | 1008.6 |
| 20260505181408 | 54 | 325 | 3.0 | 8.0 | 0.01 | 0.11 | 0.08 | 73 | 1008.7 |
| 20260505180901 | 53 | 261 | 3.0 | 8.0 | 0.02 | 0.11 | 0.08 | 73 | 1008.6 |
| 20260505180626 | 53 | 219 | 3.0 | 8.0 | 0.02 | 0.11 | 0.08 | 75 | 1008.7 |
| 20260505175850 | 53 | 204 | 3.0 | 8.0 | 0.02 | 0.11 | 0.08 | 75 | 1008.7 |
| 20260505175344 | 53 | 205 | 2.0 | 7.0 | 0.03 | 0.11 | 0.08 | 75 | 1008.7 |
| 20260505174837 | 52 | 231 | 2.0 | 8.0 | 0.03 | 0.11 | 0.08 | 76 | 1008.5 |
| 20260505174602 | 53 | 233 | 3.0 | 13.0 | 0.03 | 0.11 | 0.08 | 75 | 1008.5 |
| 20260505173826 | 53 | 231 | 5.0 | 13.0 | 0.02 | 0.10 | 0.07 | 74 | 1008.5 |
| 20260505173552 | 53 | 238 | 5.0 | 15.0 | 0.02 | 0.10 | 0.07 | 74 | 1008.6 |
| 20260505172813 | 53 | 264 | 4.0 | 15.0 | 0.02 | 0.10 | 0.07 | 75 | 1008.6 |
| 20260505172308 | 53 | 272 | 3.0 | 9.0 | 0.02 | 0.10 | 0.07 | 76 | 1008.7 |
| 20260505171801 | 53 | 262 | 3.0 | 9.0 | 0.02 | 0.10 | 0.07 | 76 | 1008.6 |
| 20260505171259 | 53 | 310 | 3.0 | 8.0 | 0.02 | 0.10 | 0.07 | 77 | 1008.4 |
| 20260505171254 | 53 | 267 | 4.0 | 9.0 | 0.01 | 0.09 | 0.06 | 76 | 1008.6 |
| 20260505170243 | 54 | 297 | 4.0 | 12.0 | 0.01 | 0.09 | 0.06 | 75 | 1008.7 |
| 20260505165738 | 55 | 244 | 4.0 | 12.0 | 0.01 | 0.09 | 0.06 | 73 | 1008.7 |
| 20260505165232 | 56 | 279 | 4.0 | 12.0 | 0.00 | 0.08 | 0.05 | 72 | 1008.9 |
| 20260505164726 | 56 | 283 | 4.0 | 10.0 | 0.00 | 0.08 | 0.05 | 71 | 1008.6 |
| 20260505164219 | 56 | 230 | 4.0 | 10.0 | 0.00 | 0.08 | 0.05 | 68 | 1008.5 |
| 20260505163714 | 57 | 265 | 4.0 | 11.0 | 0.00 | 0.08 | 0.05 | 67 | 1008.4 |
| 20260505163207 | 58 | 295 | 4.0 | 11.0 | 0.00 | 0.08 | 0.05 | 66 | 1008.4 |
| 20260505162932 | 58 | 252 | 4.0 | 10.0 | 0.00 | 0.08 | 0.05 | 65 | 1008.4 |
| 20260505162156 | 59 | 224 | 4.0 | 12.0 | 0.00 | 0.08 | 0.05 | 61 | 1008.2 |
| 20260505161650 | 59 | 279 | 4.0 | 12.0 | 0.00 | 0.08 | 0.05 | 59 | 1008.1 |
| 20260505161416 | 59 | 257 | 4.0 | 11.0 | 0.00 | 0.08 | 0.05 | 57 | 1008.0 |
| 20260505160637 | 60 | 269 | 4.0 | 11.0 | 0.00 | 0.08 | 0.05 | 58 | 1007.8 |
| 20260505160402 | 60 | 277 | 4.0 | 10.0 | 0.00 | 0.08 | 0.05 | 57 | 1007.5 |
| 20260505153055 | 59 | 6 | 1.0 | 3.0 | 0.00 | 0.08 | 0.05 | 68 | 1007.6 |
| 20260505152549 | 59 | 6 | 1.0 | 3.0 | 0.00 | 0.08 | 0.05 | 68 | 1007.5 |
| 20260505152044 | 59 | 11 | 0.0 | 4.0 | 0.00 | 0.08 | 0.05 | 68 | 1007.1 |
| 20260505151537 | 59 | 47 | 1.0 | 4.0 | 0.00 | 0.08 | 0.05 | 68 | 1007.1 |
| 20260505151031 | 59 | 16 | 1.0 | 5.0 | 0.00 | 0.08 | 0.05 | 69 | 1007.1 |
| 20260505150526 | 59 | 359 | 1.0 | 5.0 | 0.00 | 0.08 | 0.05 | 68 | 1007.1 |
| 20260505140414 | 62 | 262 | 3.0 | 11.0 | 0.00 | 0.08 | 0.05 | 63 | 1006.4 |